Regional Weather Roundup
Issued by NWS

Home | Current Version | Previous Version | Graphics & Text | Print | Product List | Glossary Off
Versions: 1 2 3 4 5 6 7 8 9 10 11 12 13 14 15 16 17 18 19 20 21 22 23 24 25 26 27 28 29 30 31 32 33 34 35 36 37 38 39 40 41 42 43 44 45 46 47 48 49 50

000
ASUS43 KDMX 270707
RWRIA

WEATHER ROUNDUP FOR IOWA
NATIONAL WEATHER SERVICE DES MOINES IA
100 AM CST TUE JAN 27 2015

NOTE: "FAIR" INDICATES FEW OR NO CLOUDS BELOW 12,000 FEET WITH NO
SIGNIFICANT WEATHER AND/OR OBSTRUCTIONS TO VISIBILITY.

* - THESE STATIONS ARE NOT NWS STATIONS...THUS NOT UNDER NWS
QUALITY CONTROL.  THEY ALSO DO NOT REPORT WEATHER SUCH
AS PRECIPITATION OR FOG.

IAZ001>003-012>014-020>022-031>034-043>046-270800-
   NORTHWEST IOWA

CITY           SKY/WX    TMP DP  RH WIND       PRES   REMARKS
CARROLL *      CLEAR     34  32  93 NW10      30.03S WCI  26
CHEROKEE *     CLEAR     32  32 100 CALM      30.04S
DENISON *      CLEAR     34  34 100 CALM      30.04R
LE MARS *      CLEAR     28  28 100 NW5       30.06R WCI  23
ORANGE CITY *  CLEAR     32  30  93 W5        30.05R WCI  27
SHELDON *      CLEAR     30  30 100 NW5       30.02S WCI  25
SIOUX CITY     CLEAR     31  28  89 W6        30.06S WCI  25
SPENCER        CLEAR     30  28  92 NW7       30.04R WCI  23
STORM LAKE *   CLEAR     32  32 100 NW9       30.04R WCI  24
$$

IAZ055>058-069>071-079>083-090>094-270800-
   SOUTHWEST IOWA

CITY           SKY/WX    TMP DP  RH WIND       PRES   REMARKS
ATLANTIC *     CLEAR     30  30 100 N5        30.04S WCI  25
AUDUBON *      CLEAR     34  30  86 NW5       30.05R WCI  30
CLARINDA *     CLEAR     32  30  93 CALM      30.07R
COUNCIL BLFS * CLEAR     36  34  93 NW7       30.04S WCI  30
CRESTON *      CLEAR     30  30 100 N8        30.03R WCI  23
HARLAN  *      CLEAR     30  30 100 NW6       30.08R WCI  24
LAMONI         CLEAR     33  30  88 NW9       30.01S WCI  25
RED OAK *      CLEAR     32  28  86 N6        30.06R WCI  26
SHENANDOAH *   CLEAR     32  30  93 NE3       30.07R
$$

IAZ047>049-059>061-072>074-084-270800-
   CENTRAL IOWA

CITY           SKY/WX    TMP DP  RH WIND       PRES   REMARKS
AMES           CLOUDY    37  30  75 N14G25    30.01R WCI  28
ANKENY *       CLOUDY    39  32  75 N13       30.02S WCI  32
CHARITON *     CLOUDY    36  34  93 NW9       30.02R WCI  29
DES MOINES     MOCLDY    37  32  82 NW7       30.03R WCI  32
GRINNELL*      CLEAR     34  30  86 NW8       29.99R WCI  27
KNOXVILLE *    CLOUDY    39  30  70 N17G24    30.00R WCI  30
MARSHALLTOWN   CLEAR     33  30  88 NW9       29.98R WCI  25
PELLA *        PTCLDY    37  32  81 NW13      30.02R WCI  29
PERRY *          N/A     32  32 100 NW7       30.03R WCI  26
$$

IAZ004>006-015-016-023>025-035-036-270800-
   NORTH CENTRAL IOWA

CITY           SKY/WX    TMP DP  RH WIND       PRES   REMARKS
ALGONA *       CLEAR     34  32  93 N6        30.02R WCI  29
CLARION *      CLEAR     34  34 100 NW8       30.01R WCI  27
ESTHERVILLE    CLEAR     32  30  92 NW10      30.02R WCI  24
FORT DODGE *   PTCLDY    36  30  80 N6        30.03S WCI  31
MASON CITY     CLEAR     32  29  88 NW12      30.00R WCI  23
FOREST CITY *  CLEAR     32  28  86 NW10      30.00R WCI  24
IOWA FALLS *     N/A     34  30  86 NW13      30.00R WCI  25
$$

IAZ007>011-017>019-026>030-037>042-050>054-066-270800-
   NORTHEAST IOWA

CITY           SKY/WX    TMP DP  RH WIND       PRES   REMARKS
CEDAR RAPIDS   CLEAR     32  31  96 NW9       29.95R WCI  24
CHARLES CITY * MOCLDY    34  34 100 N12       29.98R WCI  25
CLINTON *      CLOUDY    28  25  86 N6        29.96R WCI  22
DECORAH *      CLOUDY    36  32  87 N8        29.94R WCI  29
DUBUQUE        CLOUDY    31  28  89 NW12      29.93R WCI  22
MONTICELLO *   CLOUDY    36  36 100 N6        29.94S WCI  31
OELWEIN *      CLOUDY    34  32  93 NW9       29.96R WCI  26
WATERLOO       CLEAR     33  30  88 NW8       29.97R WCI  26
$$

IAZ064-065-067-068-078-270800-
   EAST CENTRAL IOWA

CITY           SKY/WX    TMP DP  RH WIND       PRES   REMARKS
DAVENPORT      CLOUDY    32  29  88 NW6       29.94R FOG     WCI  26
IOWA CITY      CLEAR     34  31  88 NW8       29.97R WCI  27
MT. PLEASANT * CLEAR     36  32  87 NW8       29.96R WCI  29
MUSCATINE *    MOCLDY    37  34  87 NW8       29.96R WCI  31
QUAD CITIES    MOCLDY    32  30  92 NW7       29.93R WCI  26
$$

IAZ062-063-075>077-085>089-095>099-270800-
   SOUTHEAST IOWA

CITY           SKY/WX    TMP DP  RH WIND       PRES   REMARKS
BURLINGTON     MOCLDY    38  34  85 NW8       29.94R WCI  32
FAIRFIELD *    CLEAR     34  30  86 NW10      29.98R WCI  26
FORT MADISON * CLOUDY    39  36  87 NW8       29.96R WCI  34
KEOKUK *       CLOUDY    39  36  87 NW10      29.95R WCI  32
OSKALOOSA *      N/A     34  30  86 NW9       30.00R WCI  26
CENTERVILLE *  CLOUDY    39  36  87 N7        30.01R WCI  34
OTTUMWA        CLEAR     35  30  82 NW13      29.99R WCI  26
WASHINGTON *   CLEAR     36  36 100 NW13      29.96R WCI  27
$$

ABBREVIATIONS USED IN REMARKS
   TC - TEMPERATURES IN CELSIUS
  WCI - WIND CHILL INDEX
   HX - HEAT INDEX
  VSB - VISIBILITY
$$



USA.gov is the U.S. government's official web portal to all federal, state and local government web resources and services.